TimeCDT,TemperatureF,Dew PointF,Humidity,Sea Level PressureIn,VisibilityMPH,Wind Direction,Wind SpeedMPH,Gust SpeedMPH,PrecipitationIn,Events,Conditions,WindDirDegrees,DateUTC
12:15 AM,80.6,64.4,58,30.01,10.0,Calm,Calm,-,N/A,,Unknown,0,2013-07-10 05:15:00
12:35 AM,78.8,64.4,61,30.01,10.0,Calm,Calm,-,N/A,,Unknown,0,2013-07-10 05:35:00
12:55 AM,77.0,64.4,65,30.01,10.0,Calm,Calm,-,N/A,,Unknown,0,2013-07-10 05:55:00
1:15 AM,78.8,62.6,57,30.01,10.0,South,3.5,-,N/A,,Unknown,180,2013-07-10 06:15:00
1:35 AM,80.6,62.6,54,30.01,10.0,Calm,Calm,-,N/A,,Unknown,0,2013-07-10 06:35:00
1:55 AM,75.2,64.4,69,30.01,9.0,Calm,Calm,-,N/A,,Unknown,0,2013-07-10 06:55:00
2:15 AM,75.2,64.4,69,30.01,10.0,Calm,Calm,-,N/A,,Unknown,0,2013-07-10 07:15:00
2:55 AM,75.2,62.6,65,30.00,10.0,Calm,Calm,-,N/A,,Unknown,0,2013-07-10 07:55:00
3:15 AM,75.2,62.6,65,30.00,10.0,Calm,Calm,-,N/A,,Unknown,0,2013-07-10 08:15:00
3:35 AM,73.4,64.4,73,29.99,10.0,Calm,Calm,-,N/A,,Unknown,0,2013-07-10 08:35:00
3:55 AM,75.2,62.6,65,29.99,10.0,Calm,Calm,-,N/A,,Unknown,0,2013-07-10 08:55:00
4:15 AM,73.4,64.4,73,29.99,10.0,Calm,Calm,-,N/A,,Unknown,0,2013-07-10 09:15:00
4:35 AM,75.2,62.6,65,30.00,10.0,Calm,Calm,-,N/A,,Unknown,0,2013-07-10 09:35:00
4:55 AM,80.6,60.8,51,29.99,10.0,South,5.8,-,N/A,,Unknown,190,2013-07-10 09:55:00
5:15 AM,80.6,60.8,51,30.00,10.0,SSW,4.6,-,N/A,,Unknown,200,2013-07-10 10:15:00
5:35 AM,77.0,62.6,61,30.00,10.0,Calm,Calm,-,N/A,,Unknown,0,2013-07-10 10:35:00
5:55 AM,77.0,60.8,57,30.00,4.0,South,3.5,-,N/A,,Haze,190,2013-07-10 10:55:00
6:15 AM,75.2,64.4,69,30.01,7.0,Calm,Calm,-,N/A,,Unknown,0,2013-07-10 11:15:00
6:35 AM,75.2,62.6,65,30.01,2.0,Calm,Calm,-,N/A,,Haze,0,2013-07-10 11:35:00
6:55 AM,80.6,62.6,54,30.01,9.0,Calm,Calm,-,N/A,,Unknown,0,2013-07-10 11:55:00
7:15 AM,77.0,66.2,69,30.01,8.0,Calm,Calm,-,N/A,,Unknown,0,2013-07-10 12:15:00
7:35 AM,82.4,64.4,54,30.01,10.0,SW,5.8,-,N/A,,Unknown,220,2013-07-10 12:35:00
7:55 AM,82.4,64.4,54,30.02,10.0,SW,6.9,-,N/A,,Unknown,220,2013-07-10 12:55:00
8:15 AM,84.2,64.4,51,30.01,10.0,SSW,8.1,-,N/A,,Unknown,210,2013-07-10 13:15:00
8:35 AM,86.0,64.4,48,30.02,10.0,SW,11.5,-,N/A,,Unknown,230,2013-07-10 13:35:00
8:55 AM,87.8,64.4,46,30.02,10.0,SW,15.0,21.9,N/A,,Unknown,220,2013-07-10 13:55:00
9:35 AM,91.4,64.4,41,30.02,10.0,SW,11.5,-,N/A,,Unknown,220,2013-07-10 14:35:00
9:55 AM,91.4,64.4,41,30.01,10.0,SW,13.8,-,N/A,,Unknown,230,2013-07-10 14:55:00
10:15 AM,91.4,64.4,41,30.01,10.0,WSW,15.0,20.7,N/A,,Unknown,240,2013-07-10 15:15:00
10:35 AM,93.2,64.4,38,30.01,10.0,WSW,13.8,18.4,N/A,,Unknown,250,2013-07-10 15:35:00
10:55 AM,93.2,62.6,36,30.02,9.0,WSW,12.7,18.4,N/A,,Unknown,250,2013-07-10 15:55:00
11:15 AM,95.0,62.6,34,30.01,9.0,WSW,11.5,16.1,N/A,,Unknown,250,2013-07-10 16:15:00
11:35 AM,95.0,64.4,36,30.01,10.0,West,10.4,17.3,N/A,,Unknown,260,2013-07-10 16:35:00
11:55 AM,96.8,62.6,32,30.01,10.0,WSW,11.5,19.6,N/A,,Unknown,250,2013-07-10 16:55:00
12:15 PM,98.6,62.6,30,30.01,10.0,West,9.2,-,N/A,,Unknown,260,2013-07-10 17:15:00
12:35 PM,98.6,60.8,29,30.00,10.0,West,10.4,16.1,N/A,,Unknown,260,2013-07-10 17:35:00
12:55 PM,100.4,62.6,29,29.99,10.0,West,11.5,16.1,N/A,,Unknown,260,2013-07-10 17:55:00
1:15 PM,100.4,60.8,27,29.99,10.0,WSW,12.7,18.4,N/A,,Unknown,250,2013-07-10 18:15:00
1:35 PM,100.4,59.0,25,29.98,9.0,West,11.5,16.1,N/A,,Unknown,260,2013-07-10 18:35:00
1:55 PM,102.2,59.0,24,29.97,9.0,West,9.2,18.4,N/A,,Unknown,270,2013-07-10 18:55:00
2:15 PM,102.2,60.8,26,29.97,10.0,West,9.2,-,N/A,,Unknown,260,2013-07-10 19:15:00
2:35 PM,102.2,59.0,24,29.96,10.0,WNW,10.4,-,N/A,,Unknown,290,2013-07-10 19:35:00
2:55 PM,102.2,59.0,24,29.96,10.0,WSW,8.1,17.3,N/A,,Unknown,240,2013-07-10 19:55:00
3:15 PM,102.2,59.0,24,29.95,10.0,WSW,9.2,-,N/A,,Unknown,240,2013-07-10 20:15:00
3:35 PM,102.2,60.8,26,29.95,10.0,West,8.1,16.1,N/A,,Unknown,270,2013-07-10 20:35:00
3:55 PM,102.2,60.8,26,29.94,10.0,West,11.5,-,N/A,,Unknown,270,2013-07-10 20:55:00
4:15 PM,102.2,62.6,27,29.93,10.0,West,10.4,16.1,N/A,,Unknown,270,2013-07-10 21:15:00
4:35 PM,102.2,62.6,27,29.92,10.0,WNW,9.2,-,N/A,,Unknown,300,2013-07-10 21:35:00
4:55 PM,96.8,64.4,34,29.91,10.0,NW,4.6,-,N/A,,Unknown,310,2013-07-10 21:55:00
5:15 PM,93.2,66.2,41,29.92,9.0,NW,12.7,23.0,N/A,,Unknown,320,2013-07-10 22:15:00
5:35 PM,89.6,66.2,46,29.90,10.0,NW,10.4,19.6,N/A,,Unknown,310,2013-07-10 22:35:00
5:55 PM,89.6,64.4,43,29.91,10.0,West,6.9,-,N/A,,Unknown,270,2013-07-10 22:55:00
6:15 PM,91.4,64.4,41,29.90,10.0,West,3.5,-,N/A,,Unknown,280,2013-07-10 23:15:00
6:35 PM,93.2,64.4,38,29.90,10.0,West,5.8,-,N/A,,Unknown,260,2013-07-10 23:35:00
6:55 PM,95.0,62.6,34,29.90,10.0,West,8.1,-,N/A,,Unknown,260,2013-07-10 23:55:00
7:15 PM,93.2,64.4,38,29.92,10.0,West,8.1,-,N/A,,Unknown,280,2013-07-11 00:15:00
7:35 PM,93.2,64.4,38,29.91,10.0,NW,3.5,-,N/A,,Unknown,310,2013-07-11 00:35:00
7:55 PM,91.4,66.2,43,29.92,10.0,WNW,3.5,-,N/A,,Unknown,300,2013-07-11 00:55:00
8:15 PM,89.6,68.0,49,29.92,10.0,SW,5.8,-,N/A,,Unknown,230,2013-07-11 01:15:00
8:35 PM,86.0,68.0,55,29.92,5.0,West,4.6,-,N/A,,Haze,270,2013-07-11 01:35:00
8:55 PM,86.0,68.0,55,29.93,10.0,SW,4.6,-,N/A,,Unknown,220,2013-07-11 01:55:00
9:15 PM,87.8,66.2,49,29.94,10.0,SSE,3.5,-,N/A,,Unknown,160,2013-07-11 02:15:00
9:35 PM,86.0,68.0,55,29.95,10.0,SSE,4.6,-,N/A,,Unknown,160,2013-07-11 02:35:00
9:55 PM,86.0,66.2,51,29.96,10.0,ESE,3.5,-,N/A,,Unknown,110,2013-07-11 02:55:00
10:15 PM,86.0,68.0,55,29.97,10.0,ESE,12.7,18.4,N/A,,Unknown,110,2013-07-11 03:15:00
10:35 PM,84.2,66.2,55,29.99,10.0,East,13.8,25.3,N/A,,Unknown,100,2013-07-11 03:35:00
10:55 PM,80.6,68.0,65,29.97,10.0,SE,13.8,25.3,N/A,,Unknown,130,2013-07-11 03:55:00
11:15 PM,80.6,68.0,65,29.97,10.0,SE,9.2,16.1,N/A,,Unknown,130,2013-07-11 04:15:00
11:35 PM,78.8,68.0,69,29.97,10.0,SE,5.8,-,N/A,,Unknown,130,2013-07-11 04:35:00
11:55 PM,78.8,68.0,69,29.96,10.0,SSE,3.5,-,N/A,,Unknown,160,2013-07-11 04:55:00